Location: New Frontier Mobile Home Park
(32.8448°N, 116.9675°W)
Time: 23:03:40
(UTC+00:00)

USA 267 - Pass Details

Date: 14 July 2020
Orbit: 1102 x 1106 km, 123.0° (Epoch: 02 August)

Event Time Altitude Azimuth Distance (km) Brightness Sun altitude
Exits shadow 07:41:26 38° 64° (ENE) 1,624 4.2 -35.5°
Maximum altitude 07:42:40 41° 39° (NE) 1,540 4.2 -35.5°
Drops below altitude 10° 07:48:42 10° 331° (NNW) 2,962 6.1 -35.6°
Sets 07:51:19 0° 325° (NW) 3,922 6.9 -35.6°
